When you browse on this site, cookies collect data to enhance your experience and personalize the content and advertising you see.
Visit our Privacy Policy to learn more. By continuing to use the site, you agree to this use of cookies and data.
  • In Hungary
  • List of Countries
  • For 7 days
  • Water Temperature
  • Weather Map
  • News
  • Weather Widgets
  • user-avatar
    Login

    Hourly Weather Hunucma

    Today, 15 November, Friday

    Time Temperature Precipitation Wind Pressure Humidity
    00:00 +25°C° 0.5 mm 3 mps 761 mmHg 96%
    01:00 +25°C° 0.6 mm 3 mps 761 mmHg 96%
    02:00 +24°C° 0.6 mm 3 mps 760 mmHg 97%
    03:00 +24°C° 0.6 mm 3 mps 760 mmHg 97%
    04:00 +24°C° 1.8 mm 3 mps 760 mmHg 97%
    05:00 +24°C° 1.8 mm 3 mps 761 mmHg 97%
    06:00 +24°C° 1.8 mm 3 mps 761 mmHg 96%
    07:00 +25°C° 1.1 mm 4 mps 761 mmHg 93%
    08:00 +26°C° 1.1 mm 4 mps 762 mmHg 90%
    09:00 +27°C° 1.1 mm 5 mps 762 mmHg 87%
    10:00 +28°C° 0.2 mm 5 mps 762 mmHg 80%
    11:00 +29°C° 0.2 mm 5 mps 762 mmHg 72%
    12:00 +30°C° 0.2 mm 5 mps 762 mmHg 65%
    13:00 +29°C° 0.2 mm 6 mps 761 mmHg 68%
    14:00 +28°C° 0.2 mm 6 mps 761 mmHg 71%
    15:00 +28°C° 0.2 mm 6 mps 760 mmHg 75%
    16:00 +27°C° 0.1 mm 6 mps 761 mmHg 78%
    17:00 +26°C° 0.1 mm 5 mps 761 mmHg 81%
    18:00 +23°C° 0.1 mm 5 mps 762 mmHg 85%
    19:00 +23°C° 0 mm 5 mps 762 mmHg 83%
    20:00 +23°C° 0 mm 4 mps 763 mmHg 82%
    21:00 +23°C° 0 mm 4 mps 763 mmHg 81%
    22:00 +23°C° 0 mm 4 mps 763 mmHg 82%
    23:00 +22°C° 0 mm 4 mps 763 mmHg 83%

    Tomorrow, 16 November, Saturday

    Time Temperature Precipitation Wind Pressure Humidity
    00:00 +22°C° 0 mm 3 mps 763 mmHg 84%
    01:00 +22°C° 0 mm 4 mps 762 mmHg 83%
    02:00 +22°C° 0 mm 4 mps 762 mmHg 83%
    03:00 +22°C° 0 mm 4 mps 762 mmHg 82%
    04:00 +22°C° 0 mm 4 mps 762 mmHg 80%
    05:00 +22°C° 0 mm 3 mps 762 mmHg 79%
    06:00 +22°C° 0 mm 3 mps 763 mmHg 77%
    07:00 +23°C° 0 mm 4 mps 763 mmHg 74%
    08:00 +23°C° 0 mm 4 mps 763 mmHg 71%
    09:00 +23°C° 0 mm 4 mps 764 mmHg 68%
    10:00 +25°C° 0 mm 4 mps 763 mmHg 66%
    11:00 +25°C° 0 mm 3 mps 763 mmHg 65%
    12:00 +25°C° 0 mm 3 mps 762 mmHg 63%
    13:00 +25°C° 0 mm 3 mps 762 mmHg 62%
    14:00 +25°C° 0 mm 3 mps 761 mmHg 60%
    15:00 +25°C° 0 mm 3 mps 761 mmHg 59%
    16:00 +24°C° 0 mm 3 mps 761 mmHg 63%
    17:00 +23°C° 0 mm 2 mps 761 mmHg 67%
    18:00 +21°C° 0 mm 2 mps 761 mmHg 71%
    19:00 +20°C° 0 mm 2 mps 762 mmHg 73%
    20:00 +20°C° 0 mm 1 mps 762 mmHg 76%
    21:00 +20°C° 0 mm 1 mps 762 mmHg 78%
    22:00 +19°C° 0 mm 1 mps 762 mmHg 79%
    23:00 +19°C° 0 mm 1 mps 762 mmHg 80%

    Day after tomorrow, 17 November, Sunday

    Time Temperature Precipitation Wind Pressure Humidity
    00:00 +19°C° 0 mm 1 mps 762 mmHg 81%
    01:00 +18°C° 0 mm 1 mps 761 mmHg 81%
    02:00 +18°C° 0 mm 1 mps 761 mmHg 81%
    03:00 +16°C° 0 mm 0 mps 760 mmHg 82%
    04:00 +18°C° 0 mm 1 mps 761 mmHg 82%
    05:00 +18°C° 0 mm 1 mps 761 mmHg 82%
    06:00 +18°C° 0 mm 1 mps 761 mmHg 83%
    07:00 +20°C° 0 mm 1 mps 761 mmHg 74%
    08:00 +23°C° 0 mm 1 mps 762 mmHg 65%
    09:00 +26°C° 0 mm 1 mps 762 mmHg 56%
    10:00 +27°C° 0 mm 1 mps 761 mmHg 52%
    11:00 +28°C° 0 mm 2 mps 761 mmHg 49%
    12:00 +28°C° 0 mm 2 mps 760 mmHg 46%
    13:00 +28°C° 0 mm 2 mps 760 mmHg 48%
    14:00 +27°C° 0 mm 3 mps 759 mmHg 50%
    15:00 +27°C° 0 mm 3 mps 759 mmHg 52%
    16:00 +25°C° 0 mm 3 mps 759 mmHg 59%
    17:00 +23°C° 0 mm 2 mps 759 mmHg 66%
    18:00 +20°C° 0 mm 2 mps 759 mmHg 73%
    19:00 +19°C° 0 mm 2 mps 760 mmHg 75%
    20:00 +20°C° 0 mm 1 mps 760 mmHg 77%
    21:00 +19°C° 0 mm 1 mps 760 mmHg 79%
    22:00 +19°C° 0 mm 1 mps 760 mmHg 80%
    23:00 +19°C° 0 mm 1 mps 760 mmHg 81%

    18 November, Monday

    Time Temperature Precipitation Wind Pressure Humidity
    00:00 +17°C° 0 mm 0 mps 760 mmHg 81%
    01:00 +16°C° 0 mm 0 mps 760 mmHg 82%
    02:00 +16°C° 0 mm 0 mps 760 mmHg 83%
    03:00 +16°C° 0 mm 0 mps 759 mmHg 83%
    04:00 +16°C° 0 mm 0 mps 760 mmHg 84%
    05:00 +16°C° 0 mm 0 mps 760 mmHg 84%
    06:00 +16°C° 0 mm 0 mps 760 mmHg 84%
    07:00 +21°C° 0 mm 1 mps 760 mmHg 75%
    08:00 +23°C° 0 mm 1 mps 761 mmHg 67%
    09:00 +26°C° 0 mm 1 mps 761 mmHg 58%
    10:00 +26°C° 0 mm 2 mps 761 mmHg 57%
    11:00 +26°C° 0 mm 2 mps 760 mmHg 57%
    12:00 +26°C° 0 mm 3 mps 760 mmHg 56%
    13:00 +26°C° 0 mm 3 mps 759 mmHg 56%
    14:00 +26°C° 0 mm 3 mps 759 mmHg 57%
    15:00 +26°C° 0 mm 2 mps 758 mmHg 57%
    16:00 +24°C° 0 mm 2 mps 759 mmHg 64%
    17:00 +23°C° 0 mm 1 mps 759 mmHg 70%
    18:00 +21°C° 0 mm 1 mps 759 mmHg 77%
    19:00 +20°C° 0 mm 1 mps 760 mmHg 79%
    20:00 +20°C° 0 mm 1 mps 760 mmHg 81%
    21:00 +17°C° 0 mm 0 mps 761 mmHg 83%
    22:00 +17°C° 0 mm 0 mps 761 mmHg 84%
    23:00 +17°C° 0 mm 0 mps 760 mmHg 85%

    19 November, Tuesday

    Time Temperature Precipitation Wind Pressure Humidity
    00:00 +17°C° 0 mm 0 mps 760 mmHg 86%
    01:00 +17°C° 0 mm 0 mps 760 mmHg 86%
    02:00 +17°C° 0 mm 0 mps 760 mmHg 86%
    03:00 +16°C° 0 mm 0 mps 760 mmHg 87%
    04:00 +16°C° 0 mm 0 mps 760 mmHg 87%
    05:00 +16°C° 0 mm 0 mps 761 mmHg 87%
    06:00 +16°C° 0 mm 0 mps 761 mmHg 87%
    07:00 +19°C° 0 mm 0 mps 761 mmHg 78%
    08:00 +22°C° 0 mm 0 mps 762 mmHg 68%
    09:00 +25°C° 0 mm 0 mps 762 mmHg 58%
    10:00 +28°C° 0 mm 1 mps 762 mmHg 54%
    11:00 +29°C° 0 mm 1 mps 761 mmHg 49%
    12:00 +29°C° 0 mm 2 mps 761 mmHg 45%
    13:00 +29°C° 0 mm 2 mps 761 mmHg 46%
    14:00 +29°C° 0 mm 2 mps 760 mmHg 47%
    15:00 +29°C° 0 mm 3 mps 760 mmHg 48%
    16:00 +26°C° 0 mm 3 mps 760 mmHg 56%
    17:00 +24°C° 0 mm 2 mps 761 mmHg 65%
    18:00 +21°C° 0 mm 2 mps 761 mmHg 74%
    19:00 +21°C° 0 mm 2 mps 761 mmHg 76%
    20:00 +20°C° 0 mm 2 mps 762 mmHg 78%
    21:00 +21°C° 0 mm 1 mps 762 mmHg 81%
    22:00 +20°C° 0 mm 1 mps 762 mmHg 82%
    23:00 +20°C° 0 mm 1 mps 762 mmHg 84%

    20 November, Wednesday

    Time Temperature Precipitation Wind Pressure Humidity
    00:00 +19°C° 0 mm 1 mps 762 mmHg 86%
    01:00 +19°C° 0 mm 1 mps 762 mmHg 86%
    02:00 +19°C° 0 mm 1 mps 762 mmHg 87%
    03:00 +19°C° 0 mm 1 mps 762 mmHg 88%
    04:00 +19°C° 0 mm 1 mps 762 mmHg 88%
    05:00 +19°C° 0 mm 1 mps 762 mmHg 88%
    06:00 +19°C° 0 mm 1 mps 762 mmHg 88%
    07:00 +21°C° 0 mm 1 mps 763 mmHg 79%
    08:00 +23°C° 0 mm 2 mps 763 mmHg 70%
    09:00 +26°C° 0 mm 2 mps 763 mmHg 61%
    10:00 +27°C° 0 mm 2 mps 763 mmHg 56%
    11:00 +28°C° 0 mm 2 mps 762 mmHg 50%
    12:00 +30°C° 0 mm 3 mps 762 mmHg 45%
    13:00 +29°C° 0 mm 3 mps 761 mmHg 47%
    14:00 +29°C° 0 mm 3 mps 761 mmHg 49%
    15:00 +29°C° 0 mm 4 mps 760 mmHg 51%
    16:00 +27°C° 0 mm 4 mps 761 mmHg 59%
    17:00 +25°C° 0 mm 4 mps 761 mmHg 67%
    18:00 +22°C° 0 mm 3 mps 761 mmHg 75%
    19:00 +22°C° 0 mm 3 mps 762 mmHg 76%
    20:00 +21°C° 0 mm 3 mps 762 mmHg 77%
    21:00 +20°C° 0 mm 3 mps 762 mmHg 78%
    22:00 +20°C° 0 mm 3 mps 762 mmHg 81%
    23:00 +19°C° 0 mm 3 mps 762 mmHg 83%
    Show more